Location: Antin
(43.3330°N, 0.2804°E)
Time: 05:10:10
(UTC+00:00)

Okean-O - Pass Details

Date: 16 October 2021
Orbit: 639 x 640 km, 98.2° (Epoch: 02 December)

Event Time Altitude Azimuth Distance (km) Brightness Sun altitude
Exits shadow 18:07:37 12° 107° (ESE) 1,873 4.4 -10.5°
Maximum altitude 18:10:21 21° 65° (ENE) 1,456 3.9 -11.0°
Drops below altitude 10° 18:13:38 10° 17° (NNE) 2,042 5.0 -11.6°
Sets 18:16:17 0° 1° (N) 2,956 6.0 -12.1°
